Weather Roundup
Issued by NWS

Home | Current Version | Previous Version | Text Only | Print | Product List | Glossary On
Versions: 1 2 3 4 5 6 7 8 9 10 11 12 13 14 15 16 17 18 19 20 21 22 23 24 25 26 27 28 29 30 31 32 33 34 35 36 37 38 39 40 41 42 43 44 45 46 47 48 49 50
000
NZUS93 KARX 190910
HRRWXR

CURRENT HOURLY OBSERVATIONS ACROSS
MUCH OF THE UPPER MISSISSIPPI VALLEY
NATIONAL WEATHER SERVICE LA CROSSE WI
300 AM CST FRI DEC 19 2014


...SOUTHEAST MINNESOTA...


CITY           SKY/WX    TMP DP  RH WIND       PRES   REMARKS
ROCHESTER      CLOUDY    22  18  85 S6        30.25S WCI  14
ROCHESTER/MAYO CLOUDY    21  16  79 SE3       30.26S
WINONA         CLOUDY    25  18  74 CALM      30.31S
AUSTIN         CLOUDY    23  19  86 S5        30.25S WCI  17
ALBERT LEA     CLOUDY    25  21  86 S6        30.24S WCI  18
DODGE CENTER   CLOUDY    21  19  93 S5        30.24S WCI  15
PRESTON        CLOUDY    22  17  84 S3        30.26S
OWATONNA       CLOUDY    23  18  80 SE3       30.24F
FARIBAULT      CLOUDY    23  19  86 CALM      30.25F
$$

...ELSEWHERE IN MINNESOTA...


CITY           SKY/WX    TMP DP  RH WIND       PRES   REMARKS
MINNEAPOLIS    CLOUDY    21  15  78 SE5       30.27F WCI  15
INTNL FALLS    CLOUDY    21  17  84 S5        30.18F WCI  15
DULUTH         CLOUDY    20  17  88 SW6       30.22R WCI  12
RED WING       CLOUDY    23  18  80 CALM      30.28S
REDWOOD FALLS  CLOUDY    25  22  88 SE10      30.22S WCI  15
MANKATO        CLOUDY    25  18  74 SE7       30.24S WCI  17
WORTHINGTON    CLOUDY    27  25  93 S8        30.18S WCI  18
FAIRMONT       CLOUDY    25  18  74 S8        30.22S WCI  16
$$

...SOUTHWEST WISCONSIN...


CITY           SKY/WX    TMP DP  RH WIND       PRES   REMARKS
LA CROSSE      CLOUDY    26  18  71 CALM      30.30S
PRAIRIE DU CHI CLOUDY    26  18  72 SW3       30.31R
BOSCOBEL       CLOUDY    26  18  71 NW3       30.31R
LONE ROCK      CLOUDY    28  19  69 W5        30.30S WCI  23
PLATTEVILLE    CLOUDY    24  20  82 CALM      30.29S
FORT MC COY    CLOUDY    24  20  83 CALM      30.30S
CAMP DOUGLAS   CLOUDY    23  23 100 W5        30.27F WCI  17
VIROQUA        CLOUDY    23  19  87 CALM      30.26S
WIS DELLS      CLOUDY    25  20  82 CALM      30.27S
$$

...ELSEWHERE IN WISCONSIN...


CITY           SKY/WX    TMP DP  RH WIND       PRES   REMARKS
MILWAUKEE      CLOUDY    28  19  69 NW9       30.27S WCI  19
MADISON        CLOUDY    26  20  77 NW5       30.27S WCI  20
GREEN BAY      CLEAR     18  16  92 CALM      30.28S
EAU CLAIRE     CLOUDY    24  19  81 SW5       30.28R WCI  18
BLACK RVR FLS  CLOUDY    25  20  82 CALM      30.28F
MEDFORD        CLOUDY    21  19  91 CALM      30.23S
WAUSAU         CLEAR     16  13  88 NW5       30.24S WCI   9
WIS RAPIDS     CLOUDY    22  18  85 CALM      30.28S
MARSHFIELD     CLOUDY    24  19  81 CALM      30.25S
RICE LAKE      CLOUDY    23  20  90 S5        30.28S WCI  17
$$

...NORTHEAST IOWA...


CITY           SKY/WX    TMP DP  RH WIND       PRES   REMARKS
DECORAH        CLOUDY    23  19  86 CALM      30.26F
MASON CITY     CLOUDY    23  20  88 S7        30.27S WCI  15
CHARLES CITY   CLOUDY    23  19  86 CALM      30.28S
OELWEIN        CLOUDY    23  19  86 CALM      30.28F
$$

...ELSEWHERE IN IOWA...


CITY           SKY/WX    TMP DP  RH WIND       PRES   REMARKS
DES MOINES     FRZ DRZL  29  24  82 E3        30.27F
IOWA CITY      CLOUDY    26  20  77 CALM      30.33R
FORT DODGE     CLOUDY    27  21  80 S5        30.25S WCI  21
$$

...NORTHERN ILLINOIS...


CITY           SKY/WX    TMP DP  RH WIND       PRES   REMARKS
CHICAGO-OHARE  CLOUDY    28  22  78 NW5       30.26F WCI  23
CHICAGO-MIDWAY FLURRIES  29  23  78 NW6       30.28R WCI  23
MOLINE         CLEAR     16  14  92 CALM      30.31S
ROCKFORD       CLOUDY    27  20  75 CALM      30.30S
PEORIA         PTCLDY    20  16  84 CALM      30.31R
$$

NOTE: "FAIR" INDICATES FEW OR NO CLOUDS BELOW 12,000 FEET WITH NO
SIGNIFICANT WEATHER AND/OR OBSTRUCTIONS TO VISIBILITY. WIND
SPEEDS ARE IN MILES-PER-HOUR.



USA.gov is the U.S. government's official web portal to all federal, state and local government web resources and services.